Location: Tamazert
(32.6352°N, 5.2072°W)
Time: 20:11:51
(UTC+00:00)

Transit 2A Rocket - Pass Details

Date: 09 October 2022
Orbit: 589 x 911 km, 66.7° (Epoch: 28 November)

Event Time Altitude Azimuth Distance (km) Brightness Sun altitude
Rises 14:57:46 0° 314° (NW) 3,143 8.3 33.9°
Reaches altitude 10° 15:00:40 10° 297° (WNW) 2,280 7.9 33.4°
Maximum altitude 15:04:18 19° 252° (WSW) 1,793 8.6 32.8°
Drops below altitude 10° 15:08:08 10° 209° (SSW) 2,419 8.7 32.1°
Sets 15:11:20 0° 192° (SSW) 3,404 8.9 31.5°
